Regional Weather Roundup
Issued by NWS

Home | Current Version | Previous Version | Text Only | Print | Product List | Glossary Off
Versions: 1 2 3 4 5 6 7 8 9 10 11 12 13 14 15 16 17 18 19 20 21 22 23 24 25 26 27 28 29 30 31 32 33 34 35 36 37 38 39 40 41 42 43 44 45 46 47 48 49 50

000
ASUS43 KLOT 261110
RWRIL

ILLINOIS REGIONAL WEATHER ROUNDUP
NATIONAL WEATHER SERVICE CHICAGO/ROMEOVILLE IL
500 AM CST FRI DEC 26 2014

NOTE: "FAIR" INDICATES FEW OR NO CLOUDS BELOW 12,000 FEET WITH NO
SIGNIFICANT WEATHER AND/OR OBSTRUCTIONS TO VISIBILITY.

* THESE STATIONS ARE NOT UNDER NWS QUALITY CONTROL. THEY ALSO MAY NOT
  REPORT WEATHER SUCH AS PRECIPITATION OR FOG.

ILZ001-002-007-009-015-016-024-261200-
NORTHWEST ILLINOIS

CITY           SKY/WX    TMP DP  RH WIND       PRES   REMARKS
MOLINE         MOCLDY    41  33  73 S15G23    29.91S
STERLING*      MOCLDY    37  34  87 CALM      29.95S
SAVANNA*       MOCLDY    39  34  81 S9        29.92S WCI  33
$$

ILZ003-004-008-010-011-017-018-261200-
NORTH CENTRAL ILLINOIS

CITY           SKY/WX    TMP DP  RH WIND       PRES   REMARKS
ROCKFORD       CLOUDY    38  34  85 S12       29.97R WCI  30
FREEPORT*      CLOUDY    37  34  89 S13       29.94S WCI  29
ROCHELLE*      MOCLDY    34  32  94 S5        29.96S WCI  29
DE KALB*       PTCLDY    32  30  94 S12       29.97S WCI  23
PERU*          CLEAR     38  34  86 S17       29.97F WCI  28
$$

ILZ005-006-012>014-019>023-261200-
NORTHEAST ILLINOIS

CITY           SKY/WX    TMP DP  RH WIND       PRES   REMARKS
CHICAGO-OHARE  PTCLDY    36  31  82 S13       29.98R WCI  27
CHICAGO-MIDWAY PTCLDY    38  32  79 S13       30.00S WCI  30
AURORA         CLEAR     34  30  85 S8        29.99R WCI  27
LANSING*       CLEAR     35  32  88 S10       30.02F WCI  27
JOLIET*        CLEAR     37  32  84 S9G16     30.01S WCI  30
WAUKEGAN       MOCLDY    38  33  82 SW14      29.96R WCI  30
DUPAGE AIRPORT CLEAR     34  30  85 S10       29.98R WCI  26
KANKAKEE*      CLEAR     37  33  87 S17G23    30.02F WCI  27
WHEELING       PTCLDY    37  32  82 S12G22    30.00R WCI  29
MORRIS*        CLEAR     36  34  92 S10       29.99F WCI  28
ROMEOVILLE*    CLEAR     36  33  87 SW12      30.00F WCI  28
NORTHERLY ISL    N/A     38  32  79 S13         N/A  WCI  30
$$

LMZ740>746-261200-
SOUTHERN LAKE MICHIGAN

STATION/POSITION SKY/WX   TEMP    WIND        PRES    VSBY  WAVE
                          AIR SEA DIR/SP/G                  HT/PER
                          (F)     (DEG/KT/KT) (MB)    (MI)  (FT/S)
WAUKEGAN HARBOR            39                   N/A
HARRISON CRIB              38     200/ 25/ 30   N/A
BURNHAM HARBOR             38     200/  8/ 12   N/A
CALUMET HARBOR             37     180/  9/ 13 1015.1S
MICHIGAN CITY              37     160/ 19/ 25   N/A
$$

ILZ025>027-034>036-040-047-049-050-058-095>099-261200-
WEST-CENTRAL ILLINOIS

CITY           SKY/WX    TMP DP  RH WIND       PRES   REMARKS
QUINCY         MOCLDY    42  34  73 S13       29.95S
GALESBURG*     PTCLDY    39  35  84 S16G22    29.94F WCI  30
MACOMB*        PTCLDY    39  35  86 S15       29.97F WCI  30
JACKSONVILLE*  CLEAR     42  36  81 S15       30.00S
PITTSFIELD*    PTCLDY    38  34  86 S7        30.00S WCI  33
$$

ILZ028>032-037-038-041>044-048-051>054-059>061-261200-
CENTRAL ILLINOIS

CITY           SKY/WX    TMP DP  RH WIND       PRES   REMARKS
PONTIAC        CLEAR     38  34  88 S17       30.01F WCI  28
BLOOMINGTON    CLEAR     38  35  89 S16       30.02F WCI  29
DECATUR        CLEAR     37  32  82 S15       30.05F WCI  28
PEORIA         PTCLDY    37  33  85 S12       29.99F WCI  29
LACON*         CLEAR     39  33  79 S12G18    29.97F WCI  32
LINCOLN*       CLEAR     38  35  87 S14       30.02F WCI  30
SPRINGFIELD    CLEAR     40  34  79 S18       30.02F
TAYLORVILLE    CLEAR     37  32  81 S13       30.05S WCI  29
$$

ILZ033-039-045-046-055>057-062-063-261200-
EAST-CENTRAL ILLINOIS

CITY           SKY/WX    TMP DP  RH WIND       PRES   REMARKS
CHAMPAIGN      CLEAR     36  32  85 S14       30.06F WCI  27
DANVILLE*      CLEAR     37  33  85 SW15G22   30.05S WCI  28
RANTOUL*       CLEAR     37  34  88 S10       30.06S WCI  30
MATTOON        CLEAR     37  33  85 S10       30.08S WCI  30
PARIS*         CLEAR     38  35  89 S16       30.10S WCI  29
$$

ILZ079-100>102-261200-
SOUTHWEST ILLINOIS

CITY           SKY/WX    TMP DP  RH WIND       PRES   REMARKS
ALTON          CLEAR     37  34  87 SE8       30.06S WCI  31
BELLEVILLE     CLEAR     39  36  91 S9        30.08S WCI  33
CAHOKIA*       CLEAR     40  35  83 S7        30.07S
SPARTA*        PTCLDY    40  34  78 S10       30.11S
$$

ILZ064>066-069>071-074>076-080>082-084>086-088>090-092>094-261200-
SOUTH-CENTRAL ILLINOIS

CITY           SKY/WX    TMP DP  RH WIND       PRES   REMARKS
CARBONDALE     PTCLDY    38  32  79 S8        30.14S WCI  32
CAIRO*         PTCLDY    42  36  80 S9        30.17S
EFFINGHAM*     CLEAR     36  31  82 SE6       30.12S WCI  31
MARION         CLEAR     41  36  81 S8        30.16R
MT. VERNON     CLEAR     39  30  70 S8        30.14R WCI  34
CENTRALIA*     CLEAR     38  33  81 S12       30.11R WCI  31
SALEM*         CLEAR     41  35  78 S8        30.12R
METROPOLIS*    PTCLDY    37  35  90 CALM      30.18R
$$

ILZ067-068-072-073-078-083-087-091-261200-
SOUTHEAST ILLINOIS

CITY           SKY/WX    TMP DP  RH WIND       PRES   REMARKS
LAWRENCEVILLE  CLEAR     34  32  92 S8        30.16F WCI  27
FLORA*         CLEAR     36  33  90 S9        30.14R WCI  29
FAIRFIELD*     CLEAR     38  34  85 S7        30.14S WCI  32
HARRISBURG*    CLEAR     36  33  90 SE3       30.18S
ROBINSON*      CLEAR     35  33  92 S8        30.15F WCI  28
CARMI*         CLEAR     34  34 100 SE8       30.17R WCI  27
$$

ABBREVIATIONS USED IN REMARKS
   TC - TEMPERATURE IN CELSIUS
  WCI - WIND CHILL INDEX
   HX - HEAT INDEX
  VSB - VISIBILITY
$$



USA.gov is the U.S. government's official web portal to all federal, state and local government web resources and services.